Time,TemperatureF,DewpointF,PressureIn,WindDirection,WindDirectionDegrees,WindSpeedMPH,WindSpeedGustMPH,Humidity,HourlyPrecipIn,Conditions,Clouds,dailyrainin,SoftwareType,DateUTC
2013-02-07 00:03:00,35.3,32.9,29.97,SSE,148,6.0,6.0,91,0.00,,,0.00,Wunderground v.1.15,2013-02-07 06:03:00,
2013-02-07 00:10:00,35.3,32.7,29.97,SSE,151,6.0,6.0,90,0.00,,,0.00,Wunderground v.1.15,2013-02-07 06:10:00,
2013-02-07 00:16:00,35.2,32.6,29.97,SSE,150,5.0,8.0,90,0.00,,,0.00,Wunderground v.1.15,2013-02-07 06:16:00,
2013-02-07 00:23:00,35.0,32.6,29.97,SE,146,6.0,6.0,91,0.00,,,0.00,Wunderground v.1.15,2013-02-07 06:23:00,
2013-02-07 00:28:00,35.0,32.6,29.97,SE,146,5.0,6.0,91,0.00,,,0.00,Wunderground v.1.15,2013-02-07 06:28:00,
2013-02-07 00:34:00,35.0,32.6,29.97,SSE,149,6.0,6.0,91,0.00,,,0.00,Wunderground v.1.15,2013-02-07 06:34:00,
2013-02-07 00:40:00,34.8,32.4,29.96,SSE,147,5.0,6.0,91,0.00,,,0.00,Wunderground v.1.15,2013-02-07 06:40:00,
2013-02-07 00:46:00,34.8,32.4,29.96,SSE,147,6.0,6.0,91,0.00,,,0.00,Wunderground v.1.15,2013-02-07 06:46:00,
2013-02-07 00:53:00,34.8,32.7,29.96,SSE,153,4.0,5.0,92,0.00,,,0.00,Wunderground v.1.15,2013-02-07 06:53:00,
2013-02-07 00:59:00,34.8,32.7,29.96,SSE,148,6.0,7.0,92,0.00,,,0.00,Wunderground v.1.15,2013-02-07 06:59:00,
2013-02-07 01:04:00,34.8,32.7,29.95,SSE,148,5.0,6.0,92,0.00,,,0.00,Wunderground v.1.15,2013-02-07 07:04:00,
2013-02-07 01:09:00,34.8,32.7,29.95,SE,145,6.0,6.0,92,0.00,,,0.00,Wunderground v.1.15,2013-02-07 07:09:00,
2013-02-07 01:15:00,34.8,32.7,29.95,SSE,150,4.0,6.0,92,0.00,,,0.00,Wunderground v.1.15,2013-02-07 07:15:00,
2013-02-07 01:22:00,34.9,32.8,29.95,SSE,151,5.0,5.0,92,0.00,,,0.00,Wunderground v.1.15,2013-02-07 07:22:00,
2013-02-07 01:28:00,35.0,32.9,29.95,SSE,152,4.0,6.0,92,0.00,,,0.00,Wunderground v.1.15,2013-02-07 07:28:00,
2013-02-07 01:33:00,35.0,32.9,29.95,SSE,155,5.0,6.0,92,0.00,,,0.00,Wunderground v.1.15,2013-02-07 07:33:00,
2013-02-07 01:38:00,35.1,33.0,29.95,SSE,151,6.0,6.0,92,0.00,,,0.00,Wunderground v.1.15,2013-02-07 07:38:00,
2013-02-07 01:44:00,35.1,33.0,29.95,SSE,152,5.0,5.0,92,0.00,,,0.00,Wunderground v.1.15,2013-02-07 07:44:00,
2013-02-07 01:50:00,35.1,33.0,29.94,SSE,153,5.0,6.0,92,0.00,,,0.00,Wunderground v.1.15,2013-02-07 07:50:00,
2013-02-07 01:55:00,35.0,32.9,29.94,SSE,150,5.0,7.0,92,0.00,,,0.00,Wunderground v.1.15,2013-02-07 07:55:00,
2013-02-07 02:00:00,35.0,32.9,29.95,SSE,150,5.0,5.0,92,0.00,,,0.00,Wunderground v.1.15,2013-02-07 08:00:00,
2013-02-07 02:05:00,35.0,32.9,29.95,SSE,147,5.0,7.0,92,0.00,,,0.00,Wunderground v.1.15,2013-02-07 08:05:00,
2013-02-07 02:10:00,35.0,32.9,29.95,SE,146,5.0,6.0,92,0.00,,,0.00,Wunderground v.1.15,2013-02-07 08:10:00,
2013-02-07 02:15:00,34.9,32.8,29.95,SSE,149,5.0,6.0,92,0.00,,,0.00,Wunderground v.1.15,2013-02-07 08:15:00,
2013-02-07 02:20:00,34.9,32.8,29.95,SSE,150,4.0,6.0,92,0.00,,,0.00,Wunderground v.1.15,2013-02-07 08:20:00,
2013-02-07 02:33:00,34.8,33.0,29.95,SSE,150,5.0,5.0,93,0.00,,,0.00,Wunderground v.1.15,2013-02-07 08:33:00,
2013-02-07 02:38:00,34.8,32.7,29.95,SSE,147,5.0,7.0,92,0.00,,,0.00,Wunderground v.1.15,2013-02-07 08:38:00,
2013-02-07 02:43:00,34.8,33.0,29.95,SSE,157,5.0,6.0,93,0.00,,,0.00,Wunderground v.1.15,2013-02-07 08:43:00,
2013-02-07 02:48:00,34.7,32.9,29.95,SSE,158,5.0,6.0,93,0.00,,,0.00,Wunderground v.1.15,2013-02-07 08:48:00,
2013-02-07 02:53:00,34.7,32.9,29.94,SSE,150,5.0,5.0,93,0.00,,,0.00,Wunderground v.1.15,2013-02-07 08:53:00,
2013-02-07 02:58:00,34.6,32.8,29.94,SSE,151,2.0,7.0,93,0.00,,,0.00,Wunderground v.1.15,2013-02-07 08:58:00,
2013-02-07 03:03:00,34.6,32.8,29.94,SSE,150,4.0,5.0,93,0.00,,,0.00,Wunderground v.1.15,2013-02-07 09:03:00,
2013-02-07 03:08:00,34.7,32.9,29.94,SSE,154,5.0,7.0,93,0.00,,,0.00,Wunderground v.1.15,2013-02-07 09:08:00,
2013-02-07 03:13:00,34.7,32.9,29.94,SSE,151,4.0,5.0,93,0.00,,,0.00,Wunderground v.1.15,2013-02-07 09:13:00,
2013-02-07 03:18:00,34.7,32.9,29.94,SSE,150,4.0,5.0,93,0.00,,,0.00,Wunderground v.1.15,2013-02-07 09:18:00,
2013-02-07 03:23:00,34.7,32.9,29.94,SSE,148,4.0,4.0,93,0.00,,,0.00,Wunderground v.1.15,2013-02-07 09:23:00,
2013-02-07 03:28:00,34.8,33.2,29.94,SSE,149,4.0,6.0,94,0.00,,,0.00,Wunderground v.1.15,2013-02-07 09:28:00,
2013-02-07 03:33:00,34.8,33.2,29.93,SSE,152,5.0,5.0,94,0.00,,,0.00,Wunderground v.1.15,2013-02-07 09:33:00,
2013-02-07 03:38:00,34.8,33.2,29.94,SSE,152,5.0,6.0,94,0.00,,,0.00,Wunderground v.1.15,2013-02-07 09:38:00,
2013-02-07 03:43:00,34.9,33.3,29.94,SSE,149,4.0,5.0,94,0.00,,,0.00,Wunderground v.1.15,2013-02-07 09:43:00,
2013-02-07 03:48:00,34.9,33.3,29.93,SSE,149,2.0,6.0,94,0.00,,,0.00,Wunderground v.1.15,2013-02-07 09:48:00,
2013-02-07 03:53:00,35.0,33.4,29.93,SSE,148,4.0,6.0,94,0.00,,,0.00,Wunderground v.1.15,2013-02-07 09:53:00,
2013-02-07 03:58:00,35.1,33.5,29.93,SSE,148,4.0,6.0,94,0.00,,,0.00,Wunderground v.1.15,2013-02-07 09:58:00,
2013-02-07 04:03:00,35.1,33.5,29.94,SSE,149,1.0,5.0,94,0.00,,,0.00,Wunderground v.1.15,2013-02-07 10:03:00,
2013-02-07 04:08:00,35.2,33.6,29.93,SSE,147,4.0,5.0,94,0.00,,,0.00,Wunderground v.1.15,2013-02-07 10:08:00,
2013-02-07 04:13:00,35.3,33.7,29.93,SSE,148,5.0,5.0,94,0.00,,,0.00,Wunderground v.1.15,2013-02-07 10:13:00,
2013-02-07 04:18:00,35.3,33.7,29.93,SSE,148,5.0,5.0,94,0.00,,,0.00,Wunderground v.1.15,2013-02-07 10:18:00,
2013-02-07 04:23:00,35.3,33.7,29.93,SE,146,4.0,5.0,94,0.00,,,0.01,Wunderground v.1.15,2013-02-07 10:23:00,
2013-02-07 04:28:00,35.3,33.7,29.93,SSE,149,4.0,5.0,94,0.00,,,0.01,Wunderground v.1.15,2013-02-07 10:28:00,
2013-02-07 04:33:00,35.2,33.6,29.93,SSE,149,4.0,5.0,94,0.05,,,0.02,Wunderground v.1.15,2013-02-07 10:33:00,
2013-02-07 04:38:00,35.3,33.7,29.93,SSE,148,4.0,5.0,94,0.05,,,0.02,Wunderground v.1.15,2013-02-07 10:38:00,
2013-02-07 04:44:00,35.2,33.6,29.93,SSE,148,1.0,4.0,94,0.05,,,0.02,Wunderground v.1.15,2013-02-07 10:44:00,
2013-02-07 04:49:00,35.3,34.0,29.93,SSE,148,2.0,4.0,95,0.04,,,0.02,Wunderground v.1.15,2013-02-07 10:49:00,
2013-02-07 04:54:00,35.3,33.7,29.92,SSE,147,2.0,3.0,94,0.00,,,0.02,Wunderground v.1.15,2013-02-07 10:54:00,
2013-02-07 04:59:00,35.3,33.7,29.92,SSE,147,4.0,5.0,94,0.00,,,0.02,Wunderground v.1.15,2013-02-07 10:59:00,
2013-02-07 05:04:00,35.3,34.0,29.92,SSE,147,2.0,2.0,95,0.00,,,0.02,Wunderground v.1.15,2013-02-07 11:04:00,
2013-02-07 05:09:00,35.3,34.0,29.92,SE,146,2.0,2.0,95,0.00,,,0.02,Wunderground v.1.15,2013-02-07 11:09:00,
2013-02-07 05:14:00,35.4,34.1,29.92,SE,146,0.0,1.0,95,0.00,,,0.02,Wunderground v.1.15,2013-02-07 11:14:00,
2013-02-07 05:19:00,35.5,34.2,29.92,SE,146,0.0,1.0,95,0.00,,,0.02,Wunderground v.1.15,2013-02-07 11:19:00,
2013-02-07 05:24:00,35.5,34.2,29.92,SE,146,1.0,1.0,95,0.00,,,0.02,Wunderground v.1.15,2013-02-07 11:24:00,
2013-02-07 05:29:00,35.5,34.2,29.92,SE,146,0.0,2.0,95,0.00,,,0.02,Wunderground v.1.15,2013-02-07 11:29:00,
2013-02-07 05:34:00,35.6,34.3,29.92,SE,146,1.0,2.0,95,0.00,,,0.02,Wunderground v.1.15,2013-02-07 11:34:00,
2013-02-07 05:39:00,35.5,34.2,29.92,SE,145,1.0,2.0,95,0.00,,,0.02,Wunderground v.1.15,2013-02-07 11:39:00,
2013-02-07 05:44:00,35.5,34.2,29.92,SE,144,1.0,2.0,95,0.00,,,0.03,Wunderground v.1.15,2013-02-07 11:44:00,
2013-02-07 05:49:00,35.5,34.2,29.92,SE,146,5.0,5.0,95,0.00,,,0.03,Wunderground v.1.15,2013-02-07 11:49:00,
2013-02-07 05:54:00,35.5,34.2,29.91,SE,144,2.0,5.0,95,0.05,,,0.04,Wunderground v.1.15,2013-02-07 11:54:00,
2013-02-07 05:59:00,35.5,34.2,29.92,SE,144,4.0,5.0,95,0.05,,,0.04,Wunderground v.1.15,2013-02-07 11:59:00,
2013-02-07 06:04:00,35.6,34.6,29.92,SE,144,2.0,5.0,96,0.05,,,0.04,Wunderground v.1.15,2013-02-07 12:04:00,
2013-02-07 06:09:00,35.6,34.6,29.92,SE,143,4.0,4.0,96,0.04,,,0.04,Wunderground v.1.15,2013-02-07 12:09:00,
2013-02-07 06:14:00,35.6,34.6,29.92,SE,142,4.0,4.0,96,0.00,,,0.05,Wunderground v.1.15,2013-02-07 12:14:00,
2013-02-07 06:19:00,35.6,34.6,29.91,SE,142,2.0,4.0,96,0.00,,,0.05,Wunderground v.1.15,2013-02-07 12:19:00,
2013-02-07 06:24:00,35.6,34.6,29.92,SE,143,5.0,5.0,96,0.00,,,0.05,Wunderground v.1.15,2013-02-07 12:24:00,
2013-02-07 06:29:00,35.6,34.6,29.92,SE,144,2.0,5.0,96,0.00,,,0.05,Wunderground v.1.15,2013-02-07 12:29:00,
2013-02-07 06:34:00,35.5,34.5,29.92,SE,143,1.0,4.0,96,0.00,,,0.05,Wunderground v.1.15,2013-02-07 12:34:00,
2013-02-07 06:39:00,35.5,34.5,29.92,SE,143,2.0,4.0,96,0.00,,,0.05,Wunderground v.1.15,2013-02-07 12:39:00,
2013-02-07 06:44:00,35.5,34.5,29.92,SE,143,1.0,2.0,96,0.00,,,0.05,Wunderground v.1.15,2013-02-07 12:44:00,
2013-02-07 06:49:00,35.5,34.5,29.92,SE,143,1.0,4.0,96,0.00,,,0.05,Wunderground v.1.15,2013-02-07 12:49:00,
2013-02-07 06:54:00,35.5,34.5,29.92,SE,143,2.0,5.0,96,0.00,,,0.05,Wunderground v.1.15,2013-02-07 12:54:00,
2013-02-07 07:00:00,35.5,34.5,29.92,SE,143,2.0,2.0,96,0.00,,,0.05,Wunderground v.1.15,2013-02-07 13:00:00,
2013-02-07 07:05:00,35.4,34.4,29.92,SE,143,0.0,2.0,96,0.00,,,0.05,Wunderground v.1.15,2013-02-07 13:05:00,
2013-02-07 07:10:00,35.4,34.4,29.92,SE,143,1.0,2.0,96,0.00,,,0.05,Wunderground v.1.15,2013-02-07 13:10:00,
2013-02-07 07:15:00,35.4,34.4,29.92,SE,144,4.0,4.0,96,0.00,,,0.05,Wunderground v.1.15,2013-02-07 13:15:00,
2013-02-07 07:20:00,35.5,34.5,29.92,SE,144,2.0,4.0,96,0.00,,,0.05,Wunderground v.1.15,2013-02-07 13:20:00,
2013-02-07 07:25:00,35.5,34.5,29.92,SE,143,1.0,2.0,96,0.00,,,0.05,Wunderground v.1.15,2013-02-07 13:25:00,
2013-02-07 07:30:00,35.5,34.5,29.92,SE,143,0.0,4.0,96,0.00,,,0.05,Wunderground v.1.15,2013-02-07 13:30:00,
2013-02-07 07:35:00,35.6,34.6,29.92,SE,143,0.0,1.0,96,0.00,,,0.06,Wunderground v.1.15,2013-02-07 13:35:00,
2013-02-07 07:40:00,35.6,34.6,29.92,SE,143,1.0,1.0,96,0.00,,,0.06,Wunderground v.1.15,2013-02-07 13:40:00,
2013-02-07 07:45:00,35.6,34.6,29.92,SE,143,1.0,2.0,96,0.00,,,0.06,Wunderground v.1.15,2013-02-07 13:45:00,
2013-02-07 07:50:00,35.6,34.6,29.92,SE,143,2.0,4.0,96,0.00,,,0.06,Wunderground v.1.15,2013-02-07 13:50:00,
2013-02-07 07:55:00,35.6,34.6,29.92,SE,142,0.0,2.0,96,0.00,,,0.06,Wunderground v.1.15,2013-02-07 13:55:00,
2013-02-07 08:01:00,35.7,34.9,29.92,SE,142,0.0,2.0,97,0.00,,,0.06,Wunderground v.1.15,2013-02-07 14:01:00,
2013-02-07 08:06:00,35.7,34.9,29.92,SE,142,1.0,2.0,97,0.00,,,0.06,Wunderground v.1.15,2013-02-07 14:06:00,
2013-02-07 08:12:00,35.7,34.9,29.92,SE,142,0.0,0.0,97,0.00,,,0.07,Wunderground v.1.15,2013-02-07 14:12:00,
2013-02-07 08:17:00,35.8,35.0,29.92,SE,142,0.0,1.0,97,0.00,,,0.07,Wunderground v.1.15,2013-02-07 14:17:00,
2013-02-07 08:22:00,35.9,35.1,29.93,SE,142,0.0,0.0,97,0.00,,,0.07,Wunderground v.1.15,2013-02-07 14:22:00,
2013-02-07 08:27:00,35.9,35.1,29.93,SE,142,0.0,0.0,97,0.00,,,0.07,Wunderground v.1.15,2013-02-07 14:27:00,
2013-02-07 08:33:00,35.9,35.1,29.93,SE,142,0.0,0.0,97,0.00,,,0.07,Wunderground v.1.15,2013-02-07 14:33:00,
2013-02-07 08:38:00,36.0,35.2,29.93,SE,142,0.0,0.0,97,0.00,,,0.07,Wunderground v.1.15,2013-02-07 14:38:00,
2013-02-07 08:43:00,36.0,35.2,29.94,SE,142,0.0,0.0,97,0.00,,,0.07,Wunderground v.1.15,2013-02-07 14:43:00,
2013-02-07 08:48:00,36.1,35.3,29.94,SE,142,0.0,0.0,97,0.00,,,0.07,Wunderground v.1.15,2013-02-07 14:48:00,
2013-02-07 08:53:00,36.1,35.3,29.94,SE,142,0.0,0.0,97,0.00,,,0.07,Wunderground v.1.15,2013-02-07 14:53:00,
2013-02-07 08:58:00,36.0,35.2,29.93,SE,142,0.0,0.0,97,0.00,,,0.08,Wunderground v.1.15,2013-02-07 14:58:00,
2013-02-07 09:03:00,35.9,35.1,29.93,SE,142,0.0,0.0,97,0.00,,,0.08,Wunderground v.1.15,2013-02-07 15:03:00,
2013-02-07 09:08:00,35.7,34.7,29.93,SE,142,0.0,0.0,96,0.00,,,0.08,Wunderground v.1.15,2013-02-07 15:08:00,
2013-02-07 09:13:00,35.6,34.6,29.93,SE,142,0.0,0.0,96,0.04,,,0.09,Wunderground v.1.15,2013-02-07 15:13:00,
2013-02-07 09:18:00,35.5,34.7,29.94,SE,142,0.0,0.0,97,0.09,,,0.10,Wunderground v.1.15,2013-02-07 15:18:00,
2013-02-07 09:23:00,35.5,34.7,29.94,SE,142,0.0,0.0,97,0.09,,,0.10,Wunderground v.1.15,2013-02-07 15:23:00,
2013-02-07 09:28:00,35.5,34.7,29.94,SE,142,0.0,0.0,97,0.06,,,0.10,Wunderground v.1.15,2013-02-07 15:28:00,
2013-02-07 09:33:00,35.4,34.6,29.94,SE,142,0.0,0.0,97,0.06,,,0.11,Wunderground v.1.15,2013-02-07 15:33:00,
2013-02-07 09:38:00,35.5,34.7,29.94,SE,142,0.0,0.0,97,0.06,,,0.11,Wunderground v.1.15,2013-02-07 15:38:00,
2013-02-07 09:43:00,35.4,34.6,29.94,SE,142,0.0,0.0,97,0.06,,,0.12,Wunderground v.1.15,2013-02-07 15:43:00,
2013-02-07 09:48:00,35.3,34.5,29.94,SE,142,0.0,2.0,97,0.06,,,0.12,Wunderground v.1.15,2013-02-07 15:48:00,
2013-02-07 09:53:00,35.3,34.5,29.94,SE,142,2.0,2.0,97,0.05,,,0.13,Wunderground v.1.15,2013-02-07 15:53:00,
2013-02-07 09:58:00,35.3,34.5,29.94,SE,142,0.0,2.0,97,0.05,,,0.13,Wunderground v.1.15,2013-02-07 15:58:00,
2013-02-07 10:03:00,35.3,34.5,29.94,SE,142,0.0,0.0,97,0.06,,,0.14,Wunderground v.1.15,2013-02-07 16:03:00,
2013-02-07 10:08:00,35.3,34.5,29.94,SE,142,0.0,0.0,97,0.06,,,0.14,Wunderground v.1.15,2013-02-07 16:08:00,
2013-02-07 10:13:00,35.4,34.6,29.94,SE,142,2.0,2.0,97,0.05,,,0.14,Wunderground v.1.15,2013-02-07 16:13:00,
2013-02-07 10:18:00,35.5,34.7,29.94,SE,137,2.0,5.0,97,0.00,,,0.14,Wunderground v.1.15,2013-02-07 16:18:00,
2013-02-07 10:23:00,35.5,34.7,29.94,SE,137,1.0,3.0,97,0.00,,,0.15,Wunderground v.1.15,2013-02-07 16:23:00,
2013-02-07 10:28:00,35.5,34.7,29.94,SE,137,4.0,5.0,97,0.00,,,0.15,Wunderground v.1.15,2013-02-07 16:28:00,
2013-02-07 10:34:00,35.4,34.6,29.94,SE,129,6.0,6.0,97,0.08,,,0.16,Wunderground v.1.15,2013-02-07 16:34:00,
2013-02-07 10:39:00,35.4,34.6,29.94,NNE,25,4.0,6.0,97,0.06,,,0.17,Wunderground v.1.15,2013-02-07 16:39:00,
2013-02-07 10:44:00,35.4,34.6,29.95,North,11,4.0,5.0,97,0.11,,,0.18,Wunderground v.1.15,2013-02-07 16:44:00,
2013-02-07 10:49:00,35.3,34.5,29.95,North,11,3.0,5.0,97,0.11,,,0.18,Wunderground v.1.15,2013-02-07 16:49:00,
2013-02-07 10:54:00,35.4,34.6,29.95,NNE,12,4.0,5.0,97,0.21,,,0.20,Wunderground v.1.15,2013-02-07 16:54:00,
2013-02-07 10:59:00,35.4,34.6,29.95,NNE,13,3.0,5.0,97,0.12,,,0.21,Wunderground v.1.15,2013-02-07 16:59:00,
2013-02-07 11:04:00,35.3,34.5,29.95,NNE,13,3.0,4.0,97,0.10,,,0.21,Wunderground v.1.15,2013-02-07 17:04:00,
2013-02-07 11:09:00,35.3,34.5,29.94,NNE,13,3.0,3.0,97,0.09,,,0.22,Wunderground v.1.15,2013-02-07 17:09:00,
2013-02-07 11:14:00,35.3,34.5,29.94,NNE,13,3.0,4.0,97,0.06,,,0.22,Wunderground v.1.15,2013-02-07 17:14:00,
2013-02-07 11:19:00,35.4,34.6,29.94,NNE,13,4.0,5.0,97,0.05,,,0.23,Wunderground v.1.15,2013-02-07 17:19:00,
2013-02-07 11:24:00,35.4,34.6,29.94,NNE,12,5.0,5.0,97,0.09,,,0.24,Wunderground v.1.15,2013-02-07 17:24:00,
2013-02-07 11:29:00,35.5,34.7,29.94,NNE,13,4.0,5.0,97,0.09,,,0.24,Wunderground v.1.15,2013-02-07 17:29:00,
2013-02-07 11:34:00,35.6,34.8,29.94,NNE,13,5.0,6.0,97,0.05,,,0.24,Wunderground v.1.15,2013-02-07 17:34:00,
2013-02-07 11:40:00,35.8,35.0,29.93,NNE,12,6.0,7.0,97,0.04,,,0.25,Wunderground v.1.15,2013-02-07 17:40:00,
2013-02-07 11:45:00,35.8,35.0,29.93,NNE,12,6.0,7.0,97,0.04,,,0.25,Wunderground v.1.15,2013-02-07 17:45:00,
2013-02-07 11:50:00,35.9,35.1,29.93,North,9,8.0,8.0,97,0.06,,,0.26,Wunderground v.1.15,2013-02-07 17:50:00,
2013-02-07 11:55:00,35.9,35.1,29.93,North,11,7.0,7.0,97,0.06,,,0.26,Wunderground v.1.15,2013-02-07 17:55:00,
2013-02-07 12:00:00,35.9,35.1,29.93,NNE,13,4.0,6.0,97,0.05,,,0.26,Wunderground v.1.15,2013-02-07 18:00:00,
2013-02-07 12:05:00,35.8,35.0,29.92,North,11,7.0,8.0,97,0.04,,,0.26,Wunderground v.1.15,2013-02-07 18:05:00,
2013-02-07 12:10:00,35.8,35.0,29.92,NNE,13,4.0,6.0,97,0.00,,,0.26,Wunderground v.1.15,2013-02-07 18:10:00,
2013-02-07 12:15:00,35.7,34.9,29.92,NNE,15,4.0,6.0,97,0.00,,,0.27,Wunderground v.1.15,2013-02-07 18:15:00,
2013-02-07 12:20:00,35.7,34.9,29.92,North,9,7.0,8.0,97,0.00,,,0.27,Wunderground v.1.15,2013-02-07 18:20:00,
2013-02-07 12:25:00,35.6,34.8,29.92,North,360,8.0,9.0,97,0.04,,,0.28,Wunderground v.1.15,2013-02-07 18:25:00,
2013-02-07 12:30:00,35.5,34.7,29.92,North,360,7.0,9.0,97,0.04,,,0.28,Wunderground v.1.15,2013-02-07 18:30:00,
2013-02-07 12:35:00,35.5,34.7,29.92,North,351,6.0,8.0,97,0.04,,,0.28,Wunderground v.1.15,2013-02-07 18:35:00,
2013-02-07 12:40:00,35.5,34.7,29.92,North,5,8.0,9.0,97,0.04,,,0.28,Wunderground v.1.15,2013-02-07 18:40:00,
2013-02-07 12:45:00,35.5,34.7,29.92,North,5,6.0,8.0,97,0.00,,,0.28,Wunderground v.1.15,2013-02-07 18:45:00,
2013-02-07 12:50:00,35.5,34.7,29.92,North,360,7.0,8.0,97,0.00,,,0.29,Wunderground v.1.15,2013-02-07 18:50:00,
2013-02-07 12:55:00,35.5,34.7,29.92,NNW,347,6.0,8.0,97,0.00,,,0.29,Wunderground v.1.15,2013-02-07 18:55:00,
2013-02-07 13:00:00,35.5,34.7,29.92,North,355,11.0,11.0,97,0.00,,,0.29,Wunderground v.1.15,2013-02-07 19:00:00,
2013-02-07 13:05:00,35.5,34.7,29.92,North,350,12.0,12.0,97,0.04,,,0.30,Wunderground v.1.15,2013-02-07 19:05:00,
2013-02-07 13:10:00,35.5,34.7,29.92,North,350,9.0,11.0,97,0.04,,,0.30,Wunderground v.1.15,2013-02-07 19:10:00,
2013-02-07 13:15:00,35.5,34.7,29.92,North,351,10.0,11.0,97,0.04,,,0.30,Wunderground v.1.15,2013-02-07 19:15:00,
2013-02-07 13:21:00,35.5,34.7,29.92,North,351,12.0,12.0,97,0.04,,,0.31,Wunderground v.1.15,2013-02-07 19:21:00,
2013-02-07 13:26:00,35.4,34.6,29.92,NNW,348,11.0,12.0,97,0.04,,,0.31,Wunderground v.1.15,2013-02-07 19:26:00,
2013-02-07 13:31:00,35.3,34.5,29.92,North,349,9.0,12.0,97,0.05,,,0.32,Wunderground v.1.15,2013-02-07 19:31:00,
2013-02-07 13:36:00,35.2,34.4,29.92,NNW,346,11.0,13.0,97,0.05,,,0.32,Wunderground v.1.15,2013-02-07 19:36:00,
2013-02-07 13:41:00,35.2,34.4,29.92,North,349,9.0,13.0,97,0.05,,,0.32,Wunderground v.1.15,2013-02-07 19:41:00,
2013-02-07 13:46:00,35.2,34.4,29.92,North,349,10.0,13.0,97,0.04,,,0.32,Wunderground v.1.15,2013-02-07 19:46:00,
2013-02-07 13:52:00,35.2,34.4,29.92,North,355,11.0,11.0,97,0.00,,,0.33,Wunderground v.1.15,2013-02-07 19:52:00,
2013-02-07 13:57:00,35.1,34.3,29.92,NNW,347,12.0,15.0,97,0.00,,,0.33,Wunderground v.1.15,2013-02-07 19:57:00,
2013-02-07 14:03:00,35.1,34.3,29.92,NNW,344,12.0,12.0,97,0.00,,,0.33,Wunderground v.1.15,2013-02-07 20:03:00,
2013-02-07 14:08:00,35.1,34.3,29.92,NNW,347,9.0,13.0,97,0.00,,,0.33,Wunderground v.1.15,2013-02-07 20:08:00,
2013-02-07 14:13:00,35.2,34.4,29.92,North,355,13.0,13.0,97,0.00,,,0.33,Wunderground v.1.15,2013-02-07 20:13:00,
2013-02-07 14:18:00,35.2,34.4,29.92,North,355,11.0,15.0,97,0.00,,,0.33,Wunderground v.1.15,2013-02-07 20:18:00,
2013-02-07 14:23:00,35.2,34.4,29.92,North,351,11.0,13.0,97,0.00,,,0.33,Wunderground v.1.15,2013-02-07 20:23:00,
2013-02-07 14:28:00,35.1,34.3,29.92,NNW,342,12.0,13.0,97,0.00,,,0.33,Wunderground v.1.15,2013-02-07 20:28:00,
2013-02-07 14:34:00,35.1,34.3,29.92,NNW,344,10.0,12.0,97,0.00,,,0.34,Wunderground v.1.15,2013-02-07 20:34:00,
2013-02-07 14:39:00,35.0,34.2,29.93,NNW,346,9.0,12.0,97,0.00,,,0.34,Wunderground v.1.15,2013-02-07 20:39:00,
2013-02-07 14:44:00,35.0,34.2,29.92,NNW,347,8.0,12.0,97,0.00,,,0.34,Wunderground v.1.15,2013-02-07 20:44:00,
2013-02-07 14:49:00,35.0,34.2,29.92,NNW,339,9.0,12.0,97,0.00,,,0.34,Wunderground v.1.15,2013-02-07 20:49:00,
2013-02-07 14:54:00,35.0,34.2,29.92,North,350,12.0,12.0,97,0.00,,,0.34,Wunderground v.1.15,2013-02-07 20:54:00,
2013-02-07 14:59:00,34.9,34.1,29.93,NNW,347,10.0,13.0,97,0.00,,,0.34,Wunderground v.1.15,2013-02-07 20:59:00,
2013-02-07 15:04:00,34.8,34.0,29.93,NNW,342,13.0,13.0,97,0.00,,,0.34,Wunderground v.1.15,2013-02-07 21:04:00,
2013-02-07 15:09:00,34.8,34.0,29.93,NNW,334,16.0,16.0,97,0.00,,,0.34,Wunderground v.1.15,2013-02-07 21:09:00,
2013-02-07 15:14:00,34.8,34.0,29.93,North,349,14.0,15.0,97,0.00,,,0.34,Wunderground v.1.15,2013-02-07 21:14:00,
2013-02-07 15:19:00,34.8,34.0,29.94,NNW,343,14.0,16.0,97,0.00,,,0.34,Wunderground v.1.15,2013-02-07 21:19:00,
2013-02-07 15:24:00,34.7,33.9,29.94,NNW,338,14.0,15.0,97,0.00,,,0.34,Wunderground v.1.15,2013-02-07 21:24:00,
2013-02-07 15:29:00,34.7,33.9,29.94,NNW,348,13.0,20.0,97,0.00,,,0.34,Wunderground v.1.15,2013-02-07 21:29:00,
2013-02-07 15:34:00,34.6,33.8,29.94,NNW,340,14.0,14.0,97,0.00,,,0.34,Wunderground v.1.15,2013-02-07 21:34:00,
2013-02-07 15:39:00,34.6,33.8,29.94,NNW,343,14.0,20.0,97,0.00,,,0.34,Wunderground v.1.15,2013-02-07 21:39:00,
2013-02-07 15:44:00,34.6,33.8,29.95,NNW,335,16.0,19.0,97,0.00,,,0.34,Wunderground v.1.15,2013-02-07 21:44:00,
2013-02-07 15:49:00,34.6,33.8,29.95,NNW,338,15.0,19.0,97,0.00,,,0.34,Wunderground v.1.15,2013-02-07 21:49:00,
2013-02-07 15:54:00,34.5,33.7,29.95,NNW,344,15.0,19.0,97,0.00,,,0.34,Wunderground v.1.15,2013-02-07 21:54:00,
2013-02-07 15:59:00,34.4,33.6,29.95,NNW,344,15.0,19.0,97,0.00,,,0.34,Wunderground v.1.15,2013-02-07 21:59:00,
2013-02-07 16:04:00,34.2,33.4,29.95,NNW,340,18.0,20.0,97,0.00,,,0.34,Wunderground v.1.15,2013-02-07 22:04:00,
2013-02-07 16:09:00,34.1,33.1,29.96,NNW,342,16.0,18.0,96,0.00,,,0.34,Wunderground v.1.15,2013-02-07 22:09:00,
2013-02-07 16:15:00,34.0,33.0,29.96,NNW,343,16.0,21.0,96,0.00,,,0.34,Wunderground v.1.15,2013-02-07 22:15:00,
2013-02-07 16:20:00,33.8,32.8,29.96,NNW,338,16.0,21.0,96,0.00,,,0.34,Wunderground v.1.15,2013-02-07 22:20:00,
2013-02-07 16:25:00,33.8,32.8,29.96,NNW,341,15.0,18.0,96,0.00,,,0.34,Wunderground v.1.15,2013-02-07 22:25:00,
2013-02-07 16:30:00,33.7,32.7,29.97,NNW,338,15.0,19.0,96,0.00,,,0.34,Wunderground v.1.15,2013-02-07 22:30:00,
2013-02-07 16:35:00,33.7,32.7,29.97,NNW,341,12.0,18.0,96,0.00,,,0.34,Wunderground v.1.15,2013-02-07 22:35:00,
2013-02-07 16:40:00,33.7,32.7,29.97,NNW,332,13.0,18.0,96,0.00,,,0.34,Wunderground v.1.15,2013-02-07 22:40:00,
2013-02-07 16:45:00,33.4,32.1,29.98,NNW,334,17.0,21.0,95,0.00,,,0.34,Wunderground v.1.15,2013-02-07 22:45:00,
2013-02-07 16:50:00,33.2,31.9,29.98,NNW,330,18.0,21.0,95,0.00,,,0.34,Wunderground v.1.15,2013-02-07 22:50:00,
2013-02-07 16:55:00,33.1,31.8,29.98,NNW,338,13.0,19.0,95,0.00,,,0.34,Wunderground v.1.15,2013-02-07 22:55:00,
2013-02-07 17:00:00,33.0,31.7,29.98,NNW,342,16.0,16.0,95,0.00,,,0.34,Wunderground v.1.15,2013-02-07 23:00:00,
2013-02-07 17:05:00,33.0,31.7,29.98,NNW,341,12.0,18.0,95,0.00,,,0.34,Wunderground v.1.15,2013-02-07 23:05:00,
2013-02-07 17:10:00,32.9,31.6,29.98,NNW,335,15.0,18.0,95,0.00,,,0.34,Wunderground v.1.15,2013-02-07 23:10:00,
2013-02-07 17:16:00,32.6,31.3,29.99,NNW,338,19.0,21.0,95,0.00,,,0.34,Wunderground v.1.15,2013-02-07 23:16:00,
2013-02-07 17:21:00,32.5,31.5,29.99,NNW,338,19.0,21.0,96,0.00,,,0.34,Wunderground v.1.15,2013-02-07 23:21:00,
2013-02-07 17:26:00,32.4,31.1,30.00,NNW,340,17.0,25.0,95,0.00,,,0.34,Wunderground v.1.15,2013-02-07 23:26:00,
2013-02-07 17:33:00,32.3,31.0,30.00,NNW,338,21.0,21.0,95,0.00,,,0.34,Wunderground v.1.15,2013-02-07 23:33:00,
2013-02-07 17:38:00,32.2,31.2,30.00,North,350,18.0,24.0,96,0.00,,,0.34,Wunderground v.1.15,2013-02-07 23:38:00,
2013-02-07 17:43:00,32.1,31.1,30.01,NNW,333,22.0,22.0,96,0.00,,,0.34,Wunderground v.1.15,2013-02-07 23:43:00,
2013-02-07 17:48:00,32.0,31.0,30.01,NNW,347,19.0,23.0,96,0.00,,,0.34,Wunderground v.1.15,2013-02-07 23:48:00,
2013-02-07 17:53:00,31.9,30.9,30.02,NW,325,22.0,22.0,96,0.00,,,0.34,Wunderground v.1.15,2013-02-07 23:53:00,
2013-02-07 17:58:00,31.7,30.7,30.02,NNW,333,21.0,25.0,96,0.00,,,0.34,Wunderground v.1.15,2013-02-07 23:58:00,
2013-02-07 18:03:00,31.6,30.6,30.03,NNW,338,18.0,21.0,96,0.00,,,0.34,Wunderground v.1.15,2013-02-08 00:03:00,
2013-02-07 18:08:00,31.7,30.7,30.03,North,355,21.0,22.0,96,0.00,,,0.34,Wunderground v.1.15,2013-02-08 00:08:00,
2013-02-07 18:13:00,31.6,30.6,30.03,NNW,348,22.0,24.0,96,0.00,,,0.34,Wunderground v.1.15,2013-02-08 00:13:00,
2013-02-07 18:18:00,31.6,30.6,30.04,NNW,345,16.0,24.0,96,0.00,,,0.34,Wunderground v.1.15,2013-02-08 00:18:00,
2013-02-07 18:23:00,31.7,30.7,30.04,North,355,22.0,24.0,96,0.00,,,0.34,Wunderground v.1.15,2013-02-08 00:23:00,
2013-02-07 18:28:00,31.4,30.4,30.04,NNW,344,18.0,25.0,96,0.00,,,0.34,Wunderground v.1.15,2013-02-08 00:28:00,
2013-02-07 18:33:00,31.2,29.9,30.04,NNW,340,20.0,24.0,95,0.00,,,0.34,Wunderground v.1.15,2013-02-08 00:33:00,
2013-02-07 18:38:00,31.2,29.9,30.05,NNW,342,18.0,24.0,95,0.00,,,0.34,Wunderground v.1.15,2013-02-08 00:38:00,
2013-02-07 18:43:00,31.2,29.9,30.05,NNW,341,21.0,21.0,95,0.00,,,0.34,Wunderground v.1.15,2013-02-08 00:43:00,
2013-02-07 18:48:00,31.2,29.9,30.05,NNW,340,18.0,24.0,95,0.00,,,0.34,Wunderground v.1.15,2013-02-08 00:48:00,
2013-02-07 18:53:00,31.1,29.8,30.05,NNW,342,21.0,21.0,95,0.00,,,0.34,Wunderground v.1.15,2013-02-08 00:53:00,
2013-02-07 18:59:00,31.0,29.7,30.05,NNW,338,21.0,25.0,95,0.00,,,0.34,Wunderground v.1.15,2013-02-08 00:59:00,
2013-02-07 19:04:00,31.1,29.8,30.06,North,355,22.0,23.0,95,0.00,,,0.34,Wunderground v.1.15,2013-02-08 01:04:00,
2013-02-07 19:09:00,31.1,29.8,30.05,NNW,342,19.0,20.0,95,0.00,,,0.34,Wunderground v.1.15,2013-02-08 01:09:00,
2013-02-07 19:14:00,31.1,29.8,30.06,North,355,20.0,28.0,95,0.00,,,0.34,Wunderground v.1.15,2013-02-08 01:14:00,
2013-02-07 19:19:00,31.2,29.9,30.06,NNW,341,19.0,41.0,95,0.00,,,0.34,Wunderground v.1.15,2013-02-08 01:19:00,
2013-02-07 19:24:00,31.1,29.6,30.06,North,349,15.0,21.0,94,0.00,,,0.34,Wunderground v.1.15,2013-02-08 01:24:00,
2013-02-07 19:29:00,31.2,29.7,30.07,North,349,17.0,21.0,94,0.00,,,0.34,Wunderground v.1.15,2013-02-08 01:29:00,
2013-02-07 19:34:00,31.2,29.7,30.06,NNW,342,19.0,22.0,94,0.00,,,0.34,Wunderground v.1.15,2013-02-08 01:34:00,
2013-02-07 19:39:00,31.1,29.6,30.07,North,350,19.0,22.0,94,0.00,,,0.34,Wunderground v.1.15,2013-02-08 01:39:00,
2013-02-07 19:44:00,30.9,29.1,30.07,NNW,343,20.0,23.0,93,0.00,,,0.34,Wunderground v.1.15,2013-02-08 01:44:00,
2013-02-07 19:49:00,30.8,29.0,30.08,NNW,346,18.0,25.0,93,0.00,,,0.34,Wunderground v.1.15,2013-02-08 01:49:00,
2013-02-07 19:54:00,30.9,29.1,30.08,North,351,15.0,21.0,93,0.00,,,0.34,Wunderground v.1.15,2013-02-08 01:54:00,
2013-02-07 19:59:00,31.0,29.5,30.08,NNW,347,16.0,21.0,94,0.00,,,0.34,Wunderground v.1.15,2013-02-08 01:59:00,
2013-02-07 20:04:00,30.8,29.3,30.08,NNW,346,16.0,22.0,94,0.00,,,0.34,Wunderground v.1.15,2013-02-08 02:04:00,
2013-02-07 20:09:00,30.7,29.2,30.08,NNW,346,20.0,21.0,94,0.00,,,0.34,Wunderground v.1.15,2013-02-08 02:09:00,
2013-02-07 20:14:00,30.7,28.9,30.09,NNW,348,18.0,23.0,93,0.00,,,0.34,Wunderground v.1.15,2013-02-08 02:14:00,
2013-02-07 20:19:00,30.6,28.6,30.09,NNW,346,18.0,28.0,92,0.00,,,0.34,Wunderground v.1.15,2013-02-08 02:19:00,
2013-02-07 20:24:00,30.6,28.8,30.09,NNW,339,21.0,25.0,93,0.00,,,0.34,Wunderground v.1.15,2013-02-08 02:24:00,
2013-02-07 20:29:00,30.6,28.8,30.09,North,350,20.0,26.0,93,0.00,,,0.34,Wunderground v.1.15,2013-02-08 02:29:00,
2013-02-07 20:34:00,30.6,28.8,30.09,NNW,346,17.0,22.0,93,0.00,,,0.34,Wunderground v.1.15,2013-02-08 02:34:00,
2013-02-07 20:39:00,30.5,28.7,30.09,North,355,22.0,41.0,93,0.00,,,0.34,Wunderground v.1.15,2013-02-08 02:39:00,
2013-02-07 20:44:00,30.6,28.8,30.10,NNW,347,16.0,20.0,93,0.00,,,0.34,Wunderground v.1.15,2013-02-08 02:44:00,
2013-02-07 20:49:00,30.5,28.7,30.10,NNW,348,22.0,24.0,93,0.00,,,0.34,Wunderground v.1.15,2013-02-08 02:49:00,
2013-02-07 20:54:00,30.3,28.3,30.10,North,360,23.0,25.0,92,0.00,,,0.34,Wunderground v.1.15,2013-02-08 02:54:00,
2013-02-07 20:59:00,30.2,28.2,30.10,North,351,22.0,26.0,92,0.00,,,0.34,Wunderground v.1.15,2013-02-08 02:59:00,
2013-02-07 21:04:00,30.2,28.4,30.10,North,355,22.0,25.0,93,0.00,,,0.34,Wunderground v.1.15,2013-02-08 03:04:00,
2013-02-07 21:09:00,30.1,28.3,30.10,NNW,348,19.0,21.0,93,0.00,,,0.34,Wunderground v.1.15,2013-02-08 03:09:00,
2013-02-07 21:14:00,30.0,28.2,30.10,North,355,20.0,24.0,93,0.00,,,0.34,Wunderground v.1.15,2013-02-08 03:14:00,
2013-02-07 21:19:00,30.2,28.4,30.11,North,350,18.0,24.0,93,0.00,,,0.34,Wunderground v.1.15,2013-02-08 03:19:00,
2013-02-07 21:24:00,30.1,28.3,30.11,North,350,19.0,20.0,93,0.00,,,0.34,Wunderground v.1.15,2013-02-08 03:24:00,
2013-02-07 21:29:00,30.1,28.3,30.11,NNW,347,15.0,22.0,93,0.00,,,0.34,Wunderground v.1.15,2013-02-08 03:29:00,
2013-02-07 21:34:00,30.1,28.3,30.11,North,350,18.0,18.0,93,0.00,,,0.34,Wunderground v.1.15,2013-02-08 03:34:00,
2013-02-07 21:40:00,30.0,28.2,30.11,NNW,340,18.0,21.0,93,0.00,,,0.34,Wunderground v.1.15,2013-02-08 03:40:00,
2013-02-07 21:45:00,30.1,28.1,30.11,NNW,348,20.0,20.0,92,0.00,,,0.34,Wunderground v.1.15,2013-02-08 03:45:00,
2013-02-07 21:50:00,30.1,28.1,30.11,North,355,16.0,21.0,92,0.00,,,0.34,Wunderground v.1.15,2013-02-08 03:50:00,
2013-02-07 21:55:00,30.1,28.1,30.11,North,5,17.0,21.0,92,0.00,,,0.34,Wunderground v.1.15,2013-02-08 03:55:00,
2013-02-07 22:00:00,30.1,28.1,30.11,NNW,348,16.0,17.0,92,0.00,,,0.34,Wunderground v.1.15,2013-02-08 04:00:00,
2013-02-07 22:05:00,30.1,28.1,30.12,North,355,16.0,20.0,92,0.00,,,0.34,Wunderground v.1.15,2013-02-08 04:05:00,
2013-02-07 22:10:00,30.1,28.3,30.12,North,355,18.0,19.0,93,0.00,,,0.34,Wunderground v.1.15,2013-02-08 04:10:00,
2013-02-07 22:15:00,29.9,27.9,30.12,NNW,348,19.0,22.0,92,0.00,,,0.34,Wunderground v.1.15,2013-02-08 04:15:00,
2013-02-07 22:20:00,29.7,27.7,30.12,NNW,348,23.0,23.0,92,0.00,,,0.34,Wunderground v.1.15,2013-02-08 04:20:00,
2013-02-07 22:25:00,29.7,27.7,30.12,North,355,21.0,21.0,92,0.00,,,0.34,Wunderground v.1.15,2013-02-08 04:25:00,
2013-02-07 22:30:00,29.6,27.6,30.12,North,349,21.0,23.0,92,0.00,,,0.34,Wunderground v.1.15,2013-02-08 04:30:00,
2013-02-07 22:35:00,29.6,27.6,30.13,North,355,19.0,26.0,92,0.00,,,0.34,Wunderground v.1.15,2013-02-08 04:35:00,
2013-02-07 22:40:00,29.5,27.5,30.13,NNW,344,19.0,26.0,92,0.00,,,0.34,Wunderground v.1.15,2013-02-08 04:40:00,
2013-02-07 22:45:00,29.5,27.5,30.13,NNW,344,20.0,22.0,92,0.00,,,0.34,Wunderground v.1.15,2013-02-08 04:45:00,
2013-02-07 22:50:00,29.6,27.6,30.13,North,5,17.0,22.0,92,0.00,,,0.34,Wunderground v.1.15,2013-02-08 04:50:00,
2013-02-07 22:55:00,29.6,27.3,30.13,North,350,19.0,23.0,91,0.00,,,0.34,Wunderground v.1.15,2013-02-08 04:55:00,
2013-02-07 23:00:00,29.5,27.2,30.13,North,351,20.0,20.0,91,0.00,,,0.34,Wunderground v.1.15,2013-02-08 05:00:00,
2013-02-07 23:04:00,29.5,27.2,30.14,North,355,17.0,17.0,91,0.00,,,0.34,Wunderground v.1.15,2013-02-08 05:04:00,
2013-02-07 23:09:00,29.6,27.6,30.14,North,355,12.0,17.0,92,0.00,,,0.34,Wunderground v.1.15,2013-02-08 05:09:00,
2013-02-07 23:14:00,29.4,27.1,30.14,North,351,17.0,22.0,91,0.00,,,0.34,Wunderground v.1.15,2013-02-08 05:14:00,
2013-02-07 23:19:00,29.4,27.1,30.14,North,5,19.0,22.0,91,0.00,,,0.34,Wunderground v.1.15,2013-02-08 05:19:00,
2013-02-07 23:24:00,29.5,27.5,30.14,North,355,16.0,19.0,92,0.00,,,0.34,Wunderground v.1.15,2013-02-08 05:24:00,
2013-02-07 23:29:00,29.4,27.4,30.14,North,355,14.0,19.0,92,0.00,,,0.34,Wunderground v.1.15,2013-02-08 05:29:00,
2013-02-07 23:34:00,29.4,27.4,30.15,North,360,12.0,17.0,92,0.00,,,0.34,Wunderground v.1.15,2013-02-08 05:34:00,
2013-02-07 23:39:00,29.4,27.4,30.15,North,360,18.0,19.0,92,0.00,,,0.34,Wunderground v.1.15,2013-02-08 05:39:00,
2013-02-07 23:44:00,29.4,27.4,30.15,North,355,17.0,19.0,92,0.00,,,0.34,Wunderground v.1.15,2013-02-08 05:44:00,
2013-02-07 23:49:00,29.3,27.3,30.15,North,355,14.0,19.0,92,0.00,,,0.34,Wunderground v.1.15,2013-02-08 05:49:00,
2013-02-07 23:54:00,29.3,27.3,30.15,North,360,20.0,20.0,92,0.00,,,0.34,Wunderground v.1.15,2013-02-08 05:54:00,